Home   Weather   Albany   Past weeks

Flag for Australia Past Weather in Albany, Western Australia, Australia — Yesterday and Last 2 Weeks

Now
43 °F

Quite cool.


Feels Like: 36 °F
Forecast: 48 / 58 °F
Wind: 13 mph from Northwest

Location: Albany Airport

Current Time: Aug 17, 2017 at 6:09:48 am

Latest Report: Aug 17, 2017 at 5:00 am


Visibility: N/A

Pressure: 30.01 "Hg

Humidity: 91%

Dew Point: 40 °F

Location of AlbanyLocation

Past Weather in Albany — Graph

°F

Albany Temperature Yesterday

Maximum temperature yesterday: 52 °F (at 12:00 pm)
Minimum temperature yesterday: 44 °F (at 11:00 pm)
Average temperature yesterday: 48 °F

High & Low Weather Summary for the Past Weeks

 TemperatureHumidityPressure
High66 °F (Aug 13, 3:00 pm)99% (Aug 2, 8:00 am)30.49 "Hg (Aug 2, 8:00 am)
Low41 °F (Aug 10, 6:00 am)43% (Aug 13, 3:00 pm)29.47 "Hg (Aug 9, 5:00 am)
Average53 °F79%29.86 "Hg
* Reported Aug 2 5:00 am — Aug 17 5:00 am, Albany. Weather by CustomWeather, © 2017

Note: Actual official high and low records may vary slightly from our data, if they occured in-between our weather recording intervals... More about our weather records

Advertising

Albany Weather History for the Previous 24 Hours

Scroll right to see more
 ConditionsComfort  
Time TempWeatherWind HumidityBarometerVisibility
5:00 am
Thu, Aug 17
43 °FQuite cool.13 mph91%30.01 "HgN/A
3:00 am43 °FPassing clouds.9 mph91%30.01 "HgN/A
2:00 am43 °FQuite cool.13 mph93%30.00 "HgN/A
12:00 am44 °FOvercast.12 mph93%30.02 "Hg5 mi
11:00 pm
Wed, Aug 16
44 °FQuite cool.10 mph92%30.01 "HgN/A
9:00 pm45 °FPassing clouds.13 mph82%30.01 "HgN/A
8:00 pm47 °FCool.13 mph67%29.99 "HgN/A
6:00 pm47 °FOvercast.15 mph80%29.96 "HgN/A
5:00 pm47 °FCool.12 mph87%29.93 "HgN/A
3:00 pm50 °FOvercast.22 mph73%29.89 "Hg6 mi
2:00 pm50 °FCool.25 mph72%29.88 "HgN/A
12:00 pm52 °FOvercast.22 mph62%29.90 "HgN/A
11:00 am46 °FCool.21 mph83%29.90 "HgN/A
9:00 am49 °FOvercast.20 mph78%29.87 "HgN/A
8:00 am48 °FCool.16 mph79%29.85 "HgN/A
6:00 am46 °FOvercast.17 mph82%29.83 "HgN/A
Weather by CustomWeather, © 2017

See weather overviewHow to use our weather pages